SJ-11-03

Satellite information

Favourite Embed

Satellite Type and Status

PAYLOADIN ORBIT

Key statistics

Satellite SJ-11-03 at a glance.

Uptime

5175

Days in orbit

Revolutions

≈ 14.6

Per day

Orbit

SSO

Sun Synchronous Orbit

Inclination

97.9

Latest

Satellite identification and parameters

Extended collection of information and parameters for SJ-11-03.

Object identification

Identified? True

Debris? False

Object name: SJ-11-03

International designator: 2011-030A

Object number (NORAD): 37730

Object ID (CCSDS): 37730

Country: PEOPLES REPUBLIC OF CHINA (PRC)

Current information (Y/N): Y

RCS size: LARGE

Orbital parameters

Period: 98.373 minutes

Inclination: 97.8922 deg

SMA: 7058.992 km

Apoapsis: 686.082 km

Periapsis: 675.633 km

RAAN: 217.393 deg

Eccentricy: 0.00074009

Argument of periapsis: 208.7274 deg

Mean anomaly: 258.3702 deg

Mean motion: 14.63823441 rev/day

Mean motion (dot): 0.00001213 rev/day2

B* drag term: 0.00024098748 1/REarth

Two-line elements (TLE)

Creation date: Sept. 4, 2025, 10:13 a.m.

Reference frame: TEME

Reference center: EARTH

Epoch: Sept. 4, 2025, 6:31 a.m. UTC

TLE line 0: 0 SJ-11-03

TLE line 1: 1 37730U 11030A 25247.27207709 .00001213 00000-0 24099-3 0 9993

TLE line 2: 2 37730 97.8922 217.3930 0007401 208.7274 258.3702 14.63823441755275

Live tracking on map

Real-time ground track for satellite SJ-11-03.

In-orbit conjunctions

There are no conjunctions computed for SJ-11-03, at the moment. Check back to stay up to date, as we update our databases every day.

Go to all conjunctions

Associated space launch

SJ-11-03 was lifted into orbit during the mission ‘Long March 2C | Shijian 10-03’, on board a Long March 2 space rocket.

The launch took place on July 6, 2011, 4:28 a.m. from Launch Area 4 (SLS-2 / 603).

For more information about the launch, click the button.

Launch to space Long March 2C | Shijian 10-03
Long March 2C | Shijian 10-03

Agency: N/A

Status: Launch Successful

Launch date: July 6, 2011, 4:28 a.m. UTC

Rocket: Long March 2

Launch pad: Launch Area 4 (SLS-2 / 603)

Location: Jiuquan Satellite Launch Center, People's Republic of China

...

Latest news about this satellite

There are no fresh news available about this satellite. Check back as we update our databases every day.


Newsletter sign-up

Weekly statistics, charts and insights to help you stay on top of the space industry.